DIRECTV 9S

Last updated on Sun Jun 21 2026 00:03:04 GMT+0000 (Coordinated Universal Time)

1 29494U 06043A 26171.35461541 -.00000118 00000+0 00000+0 0 9996 2 29494 2.4300 80.8686 0005074 14.6015 199.5571 1.00271223 51414
UTC large
Height (km)
Speed (km/s)
/
Latitude / Longitude
Inclination (degrees)
Orbital Period (minutes)
Azimuth
Elevation
Range (km)
Doppler Factor

Next 0 passes for location: London (51.5072 / 0.1276)

No passes found over London.
DIRECTV 9S